Starlink 11177

operational
NORAD ID: 60118 Int'l Des: 2024-118 Owner: SPXS Country: US Constellation: starlink
LEOCIRCULAR

Starlink 11177について

説明を読み込み中...

リアルタイム位置

3D地球を読み込み中...

次回通過

高度履歴

Altitude vs Time

uPlot chart will show altitude changes over time

軌道要素

1 60118U 24118F 25353.47118304 -.00000495 00000-0 77463-6 0 9990
2 60118 53.1599 256.7419 0001336 88.3107 271.8064 15.69695068 85392
Epoch: Dec 19, 2025 • Age: 16 hours

現在のステータス

高度 359.7 km
速度 7.70 km/s
衛星直下点 16.60°N, 77.29°W
打ち上げ日 Jun 24, 2024
運用期間 1.4 years
タイプ internet

技術仕様

分類 Payload
質量 960.00 kg
乾燥質量 910.00 kg
総質量 960.00 kg
長さ 0.30 m
直径 4.10 m
スパン 29.00 m
形状 Box + pan
製造者 SPXS
バスタイプ Starlink V2MD
フェーズステータス In Orbit
所有者/国 SPXS/US

大規模コンステレーション

Loading constellations...